sat.trackr.live / text

‹ back to catalog

NUSAT-40 (C SHOEMAKER)

NORAD 56943 · 2023-084M

PAYLOAD ACTIVE UNKNOWN

§ Identity

Operator
Country
ARGN
Launch date
2023-06-12
Launch site
AFWTR
Launch vehicle
Mass (kg)
RCS (m²)

External: N2YO · Heavens-Above · Gunter

§ Orbital elements

Epoch: 2026-09-14T05:42:18.042048Z

Period
88.02 min
Inclination
97.4777°
Eccentricity
0.0011723
Mean motion
16.35922825 rev/d
Perigee alt
169.0 km
Apogee alt
184.4 km
Semi-major
6,554.8 km
B*
6.1601e-4
RAAN
52.8898°
Arg perigee
268.7756°
Mean anomaly
91.2198°
Rev number
18,296

§ Raw data

NUSAT-40 (C SHOEMAKER)1 56943U 23084M   26257.23770882  .04924417  25723-5  61601-3 0  99952 56943  97.4777  52.8898 0011723 268.7756  91.2198 16.35922825182964

JSON: /api/v1/satellites/56943 · /tle

For live sub-satellite position, see the globe view (requires WebGL).

§ Visibility from observer

Set your observer location to see the next 7 days of passes ≥ 10°. The values pass through the URL so the page stays shareable.

No JS? Fill the form by hand. The geolocation button needs JavaScript.